Time,TemperatureF,DewpointF,PressureIn,WindDirection,WindDirectionDegrees,WindSpeedMPH,WindSpeedGustMPH,Humidity,HourlyPrecipIn,Conditions,Clouds,dailyrainin,SolarRadiationWatts/m^2,SoftwareType,DateUTC
2013-05-01 00:08:00,55.4,51.0,29.76,NE,41,0.0,0.0,86,0.00,,,0.00,0,weatherlink.com 1.10,2013-05-01 04:08:00,
2013-05-01 00:23:00,55.1,51.0,29.76,NE,41,0.0,2.0,86,0.00,,,0.00,0,weatherlink.com 1.10,2013-05-01 04:23:00,
2013-05-01 00:38:00,55.1,52.0,29.77,NE,41,0.0,1.0,88,0.00,,,0.00,0,weatherlink.com 1.10,2013-05-01 04:38:00,
2013-05-01 00:53:00,55.2,52.0,29.79,NE,41,0.0,2.0,88,0.00,,,0.00,0,weatherlink.com 1.10,2013-05-01 04:53:00,
2013-05-01 01:08:00,55.9,52.0,29.83,NNW,341,2.0,3.0,86,0.00,,,0.00,0,weatherlink.com 1.10,2013-05-01 05:08:00,
2013-05-01 01:23:00,56.9,53.0,29.86,NW,311,0.0,5.0,87,0.02,,,0.02,0,weatherlink.com 1.10,2013-05-01 05:23:00,
2013-05-01 01:38:00,57.1,53.0,29.89,WNW,290,0.0,7.0,86,0.03,,,0.03,0,weatherlink.com 1.10,2013-05-01 05:38:00,
2013-05-01 01:53:00,55.9,52.0,29.87,NW,304,1.0,3.0,88,0.07,,,0.07,0,weatherlink.com 1.10,2013-05-01 05:53:00,
2013-05-01 02:08:00,54.8,52.0,29.85,NW,304,0.0,2.0,91,0.07,,,0.07,0,weatherlink.com 1.10,2013-05-01 06:08:00,
2013-05-01 02:23:00,54.3,52.0,29.85,NW,304,0.0,1.0,93,0.05,,,0.07,0,weatherlink.com 1.10,2013-05-01 06:23:00,
2013-05-01 02:39:00,53.9,52.0,29.89,West,277,0.0,2.0,94,0.11,,,0.14,0,weatherlink.com 1.10,2013-05-01 06:39:00,
2013-05-01 02:54:00,53.9,53.0,29.86,West,277,0.0,1.0,95,0.11,,,0.18,0,weatherlink.com 1.10,2013-05-01 06:54:00,
2013-05-01 03:09:00,53.7,52.0,29.89,West,277,0.0,2.0,95,0.12,,,0.19,0,weatherlink.com 1.10,2013-05-01 07:09:00,
2013-05-01 03:24:00,53.7,52.0,29.92,West,277,0.0,2.0,95,0.14,,,0.21,0,weatherlink.com 1.10,2013-05-01 07:24:00,
2013-05-01 03:39:00,53.6,53.0,29.91,West,277,0.0,0.0,96,0.10,,,0.25,0,weatherlink.com 1.10,2013-05-01 07:39:00,
2013-05-01 03:54:00,53.5,52.0,29.92,West,277,0.0,0.0,96,0.08,,,0.26,0,weatherlink.com 1.10,2013-05-01 07:54:00,
2013-05-01 04:09:00,53.3,52.0,29.92,West,277,0.0,0.0,96,0.08,,,0.27,0,weatherlink.com 1.10,2013-05-01 08:09:00,
2013-05-01 04:24:00,53.1,52.0,29.90,West,277,0.0,2.0,96,0.06,,,0.27,0,weatherlink.com 1.10,2013-05-01 08:24:00,
2013-05-01 04:39:00,53.0,52.0,29.90,West,277,0.0,3.0,96,0.02,,,0.27,0,weatherlink.com 1.10,2013-05-01 08:39:00,
2013-05-01 04:54:00,52.6,52.0,29.91,West,277,0.0,0.0,96,0.01,,,0.27,0,weatherlink.com 1.10,2013-05-01 08:54:00,
2013-05-01 05:09:00,52.4,51.0,29.92,West,277,0.0,0.0,96,0.00,,,0.27,0,weatherlink.com 1.10,2013-05-01 09:09:00,
2013-05-01 05:24:00,52.1,51.0,29.91,West,277,0.0,0.0,96,0.00,,,0.27,0,weatherlink.com 1.10,2013-05-01 09:24:00,
2013-05-01 05:39:00,51.9,51.0,29.93,West,277,0.0,1.0,96,0.00,,,0.27,0,weatherlink.com 1.10,2013-05-01 09:39:00,
2013-05-01 05:54:00,51.9,51.0,29.92,West,277,0.0,1.0,96,0.00,,,0.27,0,weatherlink.com 1.10,2013-05-01 09:54:00,
2013-05-01 06:09:00,51.7,51.0,29.92,West,277,0.0,0.0,96,0.01,,,0.28,0,weatherlink.com 1.10,2013-05-01 10:09:00,
2013-05-01 06:24:00,51.5,50.0,29.93,West,277,2.0,2.0,96,0.01,,,0.28,0,weatherlink.com 1.10,2013-05-01 10:24:00,
2013-05-01 06:39:00,51.3,50.0,29.96,West,277,0.0,2.0,96,0.01,,,0.28,0,weatherlink.com 1.10,2013-05-01 10:39:00,
2013-05-01 06:54:00,51.2,50.0,29.98,West,277,0.0,0.0,96,0.01,,,0.28,5,weatherlink.com 1.10,2013-05-01 10:54:00,
2013-05-01 07:09:00,51.0,50.0,29.99,West,277,0.0,0.0,96,0.00,,,0.28,18,weatherlink.com 1.10,2013-05-01 11:09:00,
2013-05-01 07:24:00,50.9,50.0,30.00,West,277,0.0,0.0,96,0.00,,,0.28,18,weatherlink.com 1.10,2013-05-01 11:24:00,
2013-05-01 07:39:00,50.8,50.0,30.02,West,276,0.0,0.0,97,0.00,,,0.28,23,weatherlink.com 1.10,2013-05-01 11:39:00,
2013-05-01 07:54:00,50.7,50.0,30.03,West,276,0.0,0.0,97,0.00,,,0.28,39,weatherlink.com 1.10,2013-05-01 11:54:00,
2013-05-01 08:09:00,50.7,50.0,30.03,West,276,0.0,1.0,97,0.00,,,0.28,62,weatherlink.com 1.10,2013-05-01 12:09:00,
2013-05-01 08:24:00,50.9,50.0,30.04,West,276,0.0,0.0,97,0.00,,,0.28,102,weatherlink.com 1.10,2013-05-01 12:24:00,
2013-05-01 08:39:00,51.7,51.0,30.05,West,276,1.0,1.0,97,0.00,,,0.28,257,weatherlink.com 1.10,2013-05-01 12:39:00,
2013-05-01 08:54:00,53.7,53.0,30.05,West,276,0.0,1.0,96,0.00,,,0.28,311,weatherlink.com 1.10,2013-05-01 12:54:00,
2013-05-01 09:09:00,55.5,50.0,30.04,West,276,0.0,2.0,82,0.00,,,0.28,360,weatherlink.com 1.10,2013-05-01 13:09:00,
2013-05-01 09:24:00,57.1,50.0,30.05,West,277,1.0,3.0,77,0.00,,,0.28,418,weatherlink.com 1.10,2013-05-01 13:24:00,
2013-05-01 09:40:00,58.3,51.0,30.05,West,277,0.0,2.0,78,0.00,,,0.28,306,weatherlink.com 1.10,2013-05-01 13:40:00,
2013-05-01 09:55:00,59.1,49.0,30.05,West,277,1.0,3.0,70,0.00,,,0.28,512,weatherlink.com 1.10,2013-05-01 13:55:00,
2013-05-01 10:10:00,59.9,46.0,30.06,WNW,287,3.0,4.0,60,0.00,,,0.28,320,weatherlink.com 1.10,2013-05-01 14:10:00,
2013-05-01 10:25:00,59.8,47.0,30.07,NNW,334,2.0,3.0,62,0.00,,,0.28,109,weatherlink.com 1.10,2013-05-01 14:25:00,
2013-05-01 10:40:00,58.3,46.0,30.09,NW,319,1.0,5.0,64,0.00,,,0.28,102,weatherlink.com 1.10,2013-05-01 14:40:00,
2013-05-01 10:55:00,57.4,45.0,30.09,NW,321,1.0,5.0,64,0.00,,,0.28,179,weatherlink.com 1.10,2013-05-01 14:55:00,
2013-05-01 11:10:00,56.9,45.0,30.11,NW,325,4.0,5.0,65,0.00,,,0.28,141,weatherlink.com 1.10,2013-05-01 15:10:00,
2013-05-01 11:25:00,56.4,46.0,30.12,NW,325,2.0,3.0,68,0.00,,,0.28,95,weatherlink.com 1.10,2013-05-01 15:25:00,
2013-05-01 11:40:00,55.7,46.0,30.12,NW,325,1.0,3.0,69,0.00,,,0.28,149,weatherlink.com 1.10,2013-05-01 15:40:00,
2013-05-01 11:55:00,56.4,46.0,30.12,North,349,1.0,5.0,69,0.00,,,0.28,721,weatherlink.com 1.10,2013-05-01 15:55:00,
2013-05-01 12:10:00,56.0,46.0,30.11,NE,53,3.0,8.0,69,0.00,,,0.28,680,weatherlink.com 1.10,2013-05-01 16:10:00,
2013-05-01 12:25:00,55.0,43.0,30.12,NE,40,4.0,10.0,65,0.00,,,0.28,812,weatherlink.com 1.10,2013-05-01 16:25:00,
2013-05-01 12:40:00,54.2,43.0,30.13,East,86,3.0,10.0,67,0.00,,,0.28,823,weatherlink.com 1.10,2013-05-01 16:40:00,
2013-05-01 12:55:00,53.9,43.0,30.13,North,355,6.0,9.0,68,0.00,,,0.28,700,weatherlink.com 1.10,2013-05-01 16:55:00,
2013-05-01 13:10:00,53.7,44.0,30.13,NNE,21,2.0,9.0,69,0.00,,,0.28,759,weatherlink.com 1.10,2013-05-01 17:10:00,
2013-05-01 13:25:00,52.4,43.0,30.13,NNW,330,1.0,8.0,70,0.00,,,0.28,387,weatherlink.com 1.10,2013-05-01 17:25:00,
2013-05-01 13:40:00,51.7,43.0,30.14,NNW,348,2.0,9.0,71,0.00,,,0.28,677,weatherlink.com 1.10,2013-05-01 17:40:00,
2013-05-01 13:55:00,49.9,42.0,30.14,NNE,16,7.0,12.0,74,0.00,,,0.28,445,weatherlink.com 1.10,2013-05-01 17:55:00,
2013-05-01 14:10:00,48.8,41.0,30.15,NE,44,3.0,10.0,75,0.00,,,0.28,657,weatherlink.com 1.10,2013-05-01 18:10:00,
2013-05-01 14:25:00,49.0,42.0,30.17,NNE,19,3.0,9.0,76,0.00,,,0.28,555,weatherlink.com 1.10,2013-05-01 18:25:00,
2013-05-01 14:40:00,49.3,42.0,30.18,NE,49,2.0,9.0,75,0.00,,,0.28,714,weatherlink.com 1.10,2013-05-01 18:40:00,
2013-05-01 14:55:00,49.4,41.0,30.19,NE,45,2.0,7.0,74,0.00,,,0.28,594,weatherlink.com 1.10,2013-05-01 18:55:00,
2013-05-01 15:10:00,48.9,42.0,30.20,NE,55,3.0,10.0,76,0.00,,,0.28,693,weatherlink.com 1.10,2013-05-01 19:10:00,
2013-05-01 15:25:00,49.9,42.0,30.20,NE,39,6.0,9.0,74,0.00,,,0.28,557,weatherlink.com 1.10,2013-05-01 19:25:00,
2013-05-01 15:40:00,48.9,41.0,30.21,NNW,346,2.0,10.0,75,0.00,,,0.28,854,weatherlink.com 1.10,2013-05-01 19:40:00,
2013-05-01 15:55:00,48.0,40.0,30.21,North,350,5.0,12.0,74,0.00,,,0.28,494,weatherlink.com 1.10,2013-05-01 19:55:00,
2013-05-01 16:11:00,47.0,39.0,30.22,NNE,24,5.0,12.0,75,0.00,,,0.28,830,weatherlink.com 1.10,2013-05-01 20:11:00,
2013-05-01 16:26:00,47.0,39.0,30.23,SE,135,1.0,12.0,75,0.00,,,0.28,601,weatherlink.com 1.10,2013-05-01 20:26:00,
2013-05-01 16:41:00,47.1,39.0,30.24,North,351,1.0,9.0,74,0.00,,,0.28,343,weatherlink.com 1.10,2013-05-01 20:41:00,
2013-05-01 16:56:00,46.6,38.0,30.24,NNE,28,5.0,12.0,73,0.00,,,0.28,621,weatherlink.com 1.10,2013-05-01 20:56:00,
2013-05-01 17:11:00,46.0,38.0,30.25,NE,50,5.0,11.0,74,0.00,,,0.28,626,weatherlink.com 1.10,2013-05-01 21:11:00,
2013-05-01 17:26:00,46.0,38.0,30.26,WNW,299,4.0,9.0,74,0.00,,,0.28,260,weatherlink.com 1.10,2013-05-01 21:26:00,
2013-05-01 17:41:00,45.2,38.0,30.25,North,11,7.0,10.0,75,0.00,,,0.28,181,weatherlink.com 1.10,2013-05-01 21:41:00,
2013-05-01 17:56:00,43.6,37.0,30.26,NW,313,2.0,11.0,78,0.00,,,0.28,109,weatherlink.com 1.10,2013-05-01 21:56:00,
2013-05-01 18:11:00,43.6,37.0,30.26,NE,48,2.0,12.0,78,0.00,,,0.28,169,weatherlink.com 1.10,2013-05-01 22:11:00,
2013-05-01 18:26:00,43.7,37.0,30.26,NE,36,1.0,8.0,78,0.00,,,0.28,148,weatherlink.com 1.10,2013-05-01 22:26:00,
2013-05-01 18:41:00,43.5,37.0,30.27,NE,49,1.0,9.0,79,0.00,,,0.28,127,weatherlink.com 1.10,2013-05-01 22:41:00,
2013-05-01 18:56:00,43.7,37.0,30.27,NNE,27,3.0,8.0,78,0.00,,,0.28,116,weatherlink.com 1.10,2013-05-01 22:56:00,
2013-05-01 19:26:00,44.1,37.0,30.28,NE,54,3.0,5.0,76,0.00,,,0.28,91,weatherlink.com 1.10,2013-05-01 23:26:00,
2013-05-01 19:41:00,43.6,37.0,30.28,NE,46,1.0,4.0,76,0.00,,,0.28,53,weatherlink.com 1.10,2013-05-01 23:41:00,
2013-05-01 19:56:00,43.1,36.0,30.29,NE,55,0.0,5.0,77,0.00,,,0.28,23,weatherlink.com 1.10,2013-05-01 23:56:00,
2013-05-01 20:11:00,42.3,36.0,30.30,NE,38,4.0,5.0,79,0.00,,,0.28,18,weatherlink.com 1.10,2013-05-02 00:11:00,
2013-05-01 20:26:00,41.7,35.0,30.30,NE,55,1.0,6.0,78,0.00,,,0.28,18,weatherlink.com 1.10,2013-05-02 00:26:00,
2013-05-01 20:41:00,41.3,35.0,30.31,NW,319,1.0,6.0,79,0.00,,,0.28,5,weatherlink.com 1.10,2013-05-02 00:41:00,
2013-05-01 20:56:00,40.7,35.0,30.32,NE,51,0.0,3.0,80,0.00,,,0.28,0,weatherlink.com 1.10,2013-05-02 00:56:00,
2013-05-01 21:11:00,40.3,35.0,30.32,North,9,0.0,3.0,81,0.00,,,0.28,0,weatherlink.com 1.10,2013-05-02 01:11:00,
2013-05-01 21:26:00,39.9,35.0,30.33,NNW,329,1.0,3.0,81,0.00,,,0.28,0,weatherlink.com 1.10,2013-05-02 01:26:00,
2013-05-01 21:41:00,39.6,35.0,30.34,NW,312,1.0,3.0,82,0.00,,,0.28,0,weatherlink.com 1.10,2013-05-02 01:41:00,
2013-05-01 21:56:00,39.5,34.0,30.34,NNW,340,2.0,3.0,82,0.00,,,0.28,0,weatherlink.com 1.10,2013-05-02 01:56:00,
2013-05-01 22:11:00,39.5,34.0,30.35,NNW,338,0.0,3.0,81,0.00,,,0.28,0,weatherlink.com 1.10,2013-05-02 02:11:00,
2013-05-01 22:26:00,39.6,34.0,30.35,NNW,338,1.0,3.0,79,0.00,,,0.28,0,weatherlink.com 1.10,2013-05-02 02:26:00,
2013-05-01 22:41:00,39.7,34.0,30.34,NNW,341,1.0,4.0,79,0.00,,,0.28,0,weatherlink.com 1.10,2013-05-02 02:41:00,
2013-05-01 22:56:00,40.1,34.0,30.35,NNW,328,1.0,6.0,78,0.00,,,0.28,0,weatherlink.com 1.10,2013-05-02 02:56:00,
2013-05-01 23:11:00,40.1,34.0,30.35,NW,309,2.0,6.0,78,0.00,,,0.28,0,weatherlink.com 1.10,2013-05-02 03:11:00,
2013-05-01 23:26:00,40.2,34.0,30.34,NNE,20,2.0,4.0,78,0.00,,,0.28,0,weatherlink.com 1.10,2013-05-02 03:26:00,
2013-05-01 23:42:00,40.4,34.0,30.34,NW,305,2.0,7.0,77,0.00,,,0.28,0,weatherlink.com 1.10,2013-05-02 03:42:00,
2013-05-01 23:57:00,40.6,34.0,30.34,NW,314,2.0,6.0,78,0.00,,,0.28,0,weatherlink.com 1.10,2013-05-02 03:57:00,